�N����,����,�~����,�C��,���x,�C��,����,���ϕ���,�ő�u�ԕ���,�ő厞����,���˗�,�I�_���x,�n�����x,�ő啗���N��,DTYPE
"23/05/21","00:10",0.0,14.9,92.6,1005.2,301.9,1.3,1.7,326.7,0.00,13.8,18.8,"00:03:52",1
"23/05/21","00:20",0.0,14.8,92.7,1005.0,285.5,1.5,1.8,318.4,0.00,13.7,18.9,"00:11:44",1
"23/05/21","00:30",0.0,14.8,93.0,1005.0,301.0,1.3,2.2,315.1,0.00,13.7,18.7,"00:27:22",1
"23/05/21","00:40",0.0,14.7,93.2,1005.2,305.7,1.6,2.1,318.1,0.00,13.7,18.7,"00:36:56",1
"23/05/21","00:50",0.0,14.6,93.3,1005.2,319.5,1.5,2.5,303.2,0.00,13.6,18.7,"00:40:32",1
"23/05/21","01:00",0.0,14.5,93.5,1005.0,298.8,1.5,2.0,310.4,0.00,13.5,18.7,"00:50:40",1
"23/05/21","01:10",0.0,14.6,93.7,1005.0,285.7,1.2,1.8,319.9,0.00,13.6,18.6,"01:00:32",1
"23/05/21","01:20",0.0,14.7,93.9,1005.0,307.0,1.3,1.7,298.0,0.00,13.8,18.7,"01:10:56",1
"23/05/21","01:30",0.0,14.9,94.0,1005.2,306.8,1.6,2.5,318.4,0.00,14.0,18.6,"01:22:52",1
"23/05/21","01:40",0.0,14.9,94.1,1005.0,307.2,1.5,1.9,325.1,0.00,14.0,18.6,"01:31:12",1
"23/05/21","01:50",0.0,14.8,94.1,1005.2,308.2,1.0,1.4,321.2,0.00,13.9,18.5,"01:48:32",1
"23/05/21","02:00",0.0,14.7,94.2,1005.5,305.6,1.2,1.6,320.9,0.00,13.8,18.4,"01:50:08",1
"23/05/21","02:10",0.0,14.6,94.4,1005.5,305.7,1.3,1.8,315.4,0.00,13.8,18.5,"02:04:32",1
"23/05/21","02:20",0.0,14.5,94.5,1005.5,312.6,1.2,1.7,327.9,0.00,13.7,18.5,"02:16:32",1
"23/05/21","02:30",0.0,14.3,94.6,1005.2,309.1,1.2,1.6,318.2,0.00,13.5,18.4,"02:28:16",1
"23/05/21","02:40",0.0,14.3,94.7,1005.0,301.9,1.1,1.4,311.6,0.00,13.5,18.4,"02:30:08",1
"23/05/21","02:50",0.0,14.3,94.9,1005.0,279.1,1.0,1.2,267.6,0.00,13.5,18.3,"02:45:28",1
"23/05/21","03:00",0.0,14.5,94.9,1005.2,290.6,1.2,1.4,307.1,0.00,13.7,18.5,"02:57:36",1
"23/05/21","03:10",0.0,14.8,95.1,1005.0,325.4,1.3,1.9,327.6,0.00,14.1,18.3,"03:09:38",1
"23/05/21","03:20",0.0,14.9,95.1,1005.2,318.2,1.5,1.9,318.1,0.00,14.2,18.3,"03:17:32",1
"23/05/21","03:30",0.0,14.9,95.1,1005.0,305.1,0.8,1.6,325.8,0.00,14.2,18.2,"03:20:38",1
"23/05/21","03:40",0.0,15.1,95.2,1005.0,272.6,0.5,1.1,297.8,0.00,14.4,18.0,"03:31:20",1
"23/05/21","03:50",0.0,15.2,95.2,1004.8,297.5,0.6,0.9,295.6,0.00,14.5,18.1,"03:44:40",1
"23/05/21","04:00",0.0,15.1,95.2,1004.8,295.1,0.5,1.6,326.5,0.00,14.4,18.3,"03:59:52",1
"23/05/21","04:10",0.0,15.3,95.3,1005.2,327.5,1.2,1.9,322.6,0.00,14.6,18.0,"04:02:30",1
"23/05/21","04:20",0.0,15.3,95.4,1005.0,304.6,1.0,1.4,333.5,0.00,14.6,18.1,"04:10:08",1
"23/05/21","04:30",0.0,15.3,95.4,1005.2,281.4,1.1,1.3,272.5,0.00,14.6,18.1,"04:22:08",1
"23/05/21","04:40",0.0,15.4,95.5,1005.0,292.9,1.0,1.6,313.7,0.00,14.7,18.0,"04:33:20",1
"23/05/21","04:50",0.0,15.5,95.6,1005.0,287.9,1.0,1.3,315.7,0.00,14.8,18.0,"04:49:28",1
"23/05/21","05:00",0.0,15.5,95.6,1005.5,306.8,1.5,1.8,326.8,0.00,14.8,18.1,"04:51:14",1
"23/05/21","05:10",0.0,15.6,95.7,1005.5,298.5,1.3,2.5,318.9,0.00,15.0,17.8,"05:03:36",1
"23/05/21","05:20",0.0,15.6,95.7,1005.7,291.6,1.1,1.6,267.3,0.00,15.0,17.6,"05:14:34",1
"23/05/21","05:30",0.0,15.6,95.7,1005.7,305.4,1.2,1.8,317.0,0.00,15.0,18.0,"05:26:10",1
"23/05/21","05:40",0.0,15.7,95.7,1006.2,304.5,1.1,1.3,310.3,0.00,15.1,17.9,"05:34:40",1
"23/05/21","05:50",0.0,15.7,95.7,1006.0,319.9,1.3,2.2,319.3,0.00,15.1,18.1,"05:40:32",1
"23/05/21","06:00",0.0,15.9,95.7,1005.7,320.0,1.1,1.3,325.9,0.00,15.3,18.0,"05:51:28",1
"23/05/21","06:10",0.0,15.7,95.7,1006.0,295.4,1.0,1.6,322.9,0.00,15.1,17.9,"06:09:12",1
"23/05/21","06:20",0.0,15.7,95.7,1006.0,287.5,1.1,2.1,317.2,0.00,15.1,17.8,"06:10:32",1
"23/05/21","06:30",0.0,15.6,95.7,1006.0,305.1,1.5,2.2,320.7,0.01,15.0,17.9,"06:28:52",1
"23/05/21","06:40",0.0,15.9,95.8,1006.0,327.2,1.3,1.7,330.4,0.03,15.3,17.8,"06:31:38",1
"23/05/21","06:50",0.0,16.3,95.7,1005.5,325.4,1.2,1.6,324.8,0.04,15.7,18.0,"06:43:36",1
"23/05/21","07:00",0.0,16.6,95.5,1005.7,291.7,1.1,2.2,339.1,0.05,15.9,17.7,"06:58:48",1
"23/05/21","07:10",0.0,17.1,95.4,1005.5,309.5,1.2,1.9,312.4,0.07,16.4,17.8,"07:01:20",1
"23/05/21","07:20",0.0,17.2,95.0,1005.7,324.7,1.2,1.8,320.7,0.05,16.4,18.0,"07:12:48",1
"23/05/21","07:30",0.0,17.9,94.9,1005.7,348.2,0.7,1.4,345.4,0.09,17.1,17.6,"07:20:16",1
"23/05/21","07:40",0.0,19.2,94.4,1005.7,311.1,0.5,1.0,322.4,0.13,18.3,17.8,"07:33:28",1
"23/05/21","07:50",0.0,19.3,93.2,1005.7,302.6,0.5,1.3,309.4,0.16,18.2,17.8,"07:40:16",1
"23/05/21","08:00",0.0,19.9,92.1,1005.2,183.2,0.3,0.9,189.1,0.19,18.6,17.9,"07:51:36",1
"23/05/21","08:10",0.0,20.7,89.3,1005.5,27.0,0.5,1.4,152.4,0.25,18.9,18.0,"08:09:20",1
"23/05/21","08:20",0.0,21.0,85.6,1005.0,58.8,0.6,1.8,109.9,0.20,18.5,17.8,"08:14:48",1
"23/05/21","08:30",0.0,21.8,82.6,1005.0,166.8,0.6,1.2,167.4,0.27,18.7,17.9,"08:26:32",1
"23/05/21","08:40",0.0,21.6,78.6,1004.3,222.5,1.1,2.1,206.7,0.30,17.8,17.8,"08:37:52",1
"23/05/21","08:50",0.0,21.3,77.3,1004.3,180.8,0.7,1.6,201.1,0.17,17.2,18.0,"08:42:32",1
"23/05/21","09:00",0.0,21.3,77.1,1004.1,351.0,0.8,1.8,91.4,0.22,17.2,18.0,"08:54:16",1
"23/05/21","09:10",0.0,21.4,76.7,1004.1,228.7,1.0,2.0,135.8,0.20,17.2,18.1,"09:05:36",1
"23/05/21","09:20",0.0,21.9,76.9,1004.1,208.8,0.7,2.5,210.7,0.30,17.7,18.0,"09:13:04",1
"23/05/21","09:30",0.0,22.6,75.2,1003.8,267.4,0.6,1.9,237.1,0.31,18.0,18.1,"09:23:36",1
"23/05/21","09:40",0.0,23.4,74.7,1003.4,182.9,0.6,2.8,116.9,0.40,18.7,18.0,"09:31:12",1
"23/05/21","09:50",0.0,23.0,73.1,1003.4,182.7,1.3,3.3,237.0,0.40,18.0,18.2,"09:44:00",1
"23/05/21","10:00",0.0,23.7,71.5,1003.1,147.9,0.8,2.2,202.0,0.46,18.3,18.0,"09:56:56",1
"23/05/21","10:10",0.0,23.8,69.7,1002.6,201.7,1.5,3.3,232.0,0.46,18.0,18.1,"10:07:44",1
"23/05/21","10:20",0.0,24.1,69.8,1003.1,218.8,1.2,2.9,225.0,0.48,18.3,18.2,"10:11:12",1
"23/05/21","10:30",0.0,24.5,68.1,1002.9,171.8,1.5,2.7,167.3,0.50,18.3,18.1,"10:21:36",1
"23/05/21","10:40",0.0,24.9,67.5,1003.1,186.4,1.1,2.5,218.7,0.49,18.5,18.1,"10:30:16",1
"23/05/21","10:50",0.0,25.1,67.5,1002.9,141.0,1.2,2.6,107.2,0.47,18.7,18.4,"10:43:04",1
"23/05/21","11:00",0.0,24.9,66.6,1002.4,135.9,1.5,2.9,114.9,0.37,18.3,18.5,"10:53:28",1
"23/05/21","11:10",0.0,24.9,67.3,1002.2,201.6,1.1,2.9,233.2,0.28,18.5,18.5,"11:05:12",1
"23/05/21","11:20",0.0,25.5,66.7,1002.2,133.9,1.5,2.8,163.4,0.43,18.9,18.3,"11:19:04",1
"23/05/21","11:30",0.0,25.8,66.8,1002.2,179.0,1.8,3.2,191.4,0.51,19.2,18.6,"11:26:24",1
"23/05/21","11:40",0.0,26.5,63.7,1002.4,207.6,0.8,3.6,209.6,0.52,19.1,18.5,"11:39:52",1
"23/05/21","11:50",0.0,27.0,63.5,1002.4,96.3,1.1,2.2,234.1,0.57,19.5,18.7,"11:40:24",1
"23/05/21","12:00",0.0,26.8,63.2,1002.4,137.5,1.3,2.6,125.9,0.44,19.3,18.8,"11:53:44",1
"23/05/21","12:10",0.0,27.3,62.7,1002.4,222.9,1.0,3.2,220.7,0.50,19.6,18.8,"12:05:04",1
"23/05/21","12:20",0.0,27.5,61.6,1002.4,147.6,1.1,2.6,156.1,0.42,19.5,18.9,"12:16:24",1
"23/05/21","12:30",0.0,27.1,59.4,1002.4,206.2,1.5,3.6,239.2,0.42,18.5,18.9,"12:24:16",1
"23/05/21","12:40",0.0,27.1,60.7,1002.2,303.2,2.0,3.7,345.2,0.46,18.9,19.1,"12:35:04",1
"23/05/21","12:50",0.0,28.4,60.0,1002.2,298.1,0.8,4.2,327.9,0.58,19.9,19.0,"12:42:16",1
"23/05/21","13:00",0.0,27.6,58.2,1002.2,320.4,2.1,4.7,348.0,0.49,18.7,19.1,"12:58:32",1
"23/05/21","13:10",0.0,27.5,56.6,1001.9,326.1,1.8,4.8,240.3,0.54,18.2,19.2,"13:04:16",1
"23/05/21","13:20",0.0,28.0,56.5,1001.9,343.4,2.1,4.8,337.7,0.56,18.6,19.2,"13:16:56",1
"23/05/21","13:30",0.0,27.7,55.9,1001.7,322.2,2.2,4.9,346.0,0.48,18.1,19.5,"13:20:08",1
"23/05/21","13:40",0.0,27.4,54.8,1001.5,328.4,2.1,5.2,346.4,0.32,17.5,19.4,"13:39:44",1
"23/05/21","13:50",0.0,27.4,56.4,1001.2,323.9,2.1,4.2,331.5,0.40,18.0,19.6,"13:40:32",1
"23/05/21","14:00",0.0,28.2,55.4,1000.8,318.3,1.7,3.9,2.7,0.55,18.5,19.6,"13:58:56",1
"23/05/21","14:10",0.0,28.1,53.7,1000.8,324.4,2.2,4.1,341.0,0.49,17.9,19.4,"14:09:44",1
"23/05/21","14:20",0.0,28.1,53.7,1001.0,307.4,1.7,3.6,312.0,0.40,17.9,19.8,"14:18:24",1
"23/05/21","14:30",0.0,28.2,54.5,1001.2,309.7,1.7,3.1,340.8,0.43,18.2,19.7,"14:25:28",1
"23/05/21","14:40",0.0,28.4,52.8,1001.2,288.0,1.7,3.6,317.8,0.38,17.9,19.9,"14:31:36",1
"23/05/21","14:50",0.0,27.6,54.4,1000.8,325.3,2.2,4.0,336.9,0.26,17.6,20.0,"14:41:20",1
"23/05/21","15:00",0.0,28.4,53.6,1000.5,309.1,1.7,4.3,327.4,0.47,18.1,20.0,"14:58:56",1
"23/05/21","15:10",0.0,28.7,52.2,1000.3,310.3,2.1,4.5,242.9,0.48,18.0,20.1,"15:08:56",1
"23/05/21","15:20",0.0,28.5,52.1,1001.0,293.7,1.7,3.9,353.6,0.40,17.8,20.1,"15:16:32",1
"23/05/21","15:30",0.0,28.3,52.6,1000.3,315.4,1.8,4.5,351.2,0.34,17.7,20.0,"15:24:16",1
"23/05/21","15:40",0.0,29.1,51.1,1000.5,286.0,1.3,3.6,318.4,0.42,18.0,20.2,"15:38:56",1
"23/05/21","15:50",0.0,28.9,51.1,1000.0,323.6,2.1,4.0,333.1,0.40,17.8,20.3,"15:40:32",1
"23/05/21","16:00",0.0,28.3,51.9,1000.3,324.7,2.0,4.4,337.6,0.26,17.5,20.3,"15:59:52",1
"23/05/21","16:10",0.0,27.9,53.6,999.8,330.7,1.8,4.0,351.1,0.20,17.7,20.6,"16:06:16",1
"23/05/21","16:20",0.0,28.3,54.0,999.6,296.0,1.6,3.4,319.4,0.22,18.1,20.2,"16:11:36",1
"23/05/21","16:30",0.0,28.7,52.5,999.6,293.0,1.7,3.9,359.2,0.30,18.1,20.6,"16:28:32",1
"23/05/21","16:40",0.0,28.7,51.8,999.6,311.0,1.8,4.9,330.6,0.30,17.9,20.5,"16:36:00",1
"23/05/21","16:50",0.0,28.6,50.8,999.3,301.4,1.6,3.5,247.3,0.22,17.5,20.6,"16:41:28",1
"23/05/21","17:00",0.0,28.5,51.3,999.3,268.2,1.5,4.7,244.2,0.22,17.5,20.4,"16:58:24",1
"23/05/21","17:10",0.0,28.6,50.6,999.6,262.5,1.5,2.8,307.9,0.21,17.4,20.6,"17:09:04",1
"23/05/21","17:20",0.0,28.2,51.7,998.9,300.2,1.6,3.9,346.1,0.14,17.4,20.7,"17:17:20",1
"23/05/21","17:30",0.0,28.1,52.3,999.3,303.4,1.7,3.9,348.1,0.14,17.5,20.7,"17:22:16",1
"23/05/21","17:40",0.0,28.1,50.2,998.9,289.9,1.6,3.2,246.2,0.14,16.8,20.8,"17:39:12",1
"23/05/21","17:50",0.0,27.7,51.0,998.9,325.1,2.1,4.8,337.8,0.12,16.7,20.6,"17:40:40",1
"23/05/21","18:00",0.0,27.7,51.2,998.9,304.8,1.6,3.3,302.9,0.06,16.8,20.9,"17:59:04",1
"23/05/21","18:10",0.0,27.4,50.2,998.6,302.3,1.6,3.6,316.7,0.04,16.2,20.7,"18:02:00",1
"23/05/21","18:20",0.0,27.3,48.1,998.6,292.3,1.6,2.9,335.1,0.03,15.4,20.9,"18:17:52",1
"23/05/21","18:30",0.0,27.0,49.4,999.3,301.8,1.5,2.8,247.0,0.03,15.5,20.8,"18:24:08",1
"23/05/21","18:40",0.0,26.5,49.4,999.1,285.0,1.2,3.1,309.2,0.02,15.1,20.7,"18:37:20",1
"23/05/21","18:50",0.0,26.3,50.6,999.6,303.9,1.5,2.9,305.5,0.01,15.3,20.8,"18:46:08",1
"23/05/21","19:00",0.0,26.1,52.7,999.6,317.8,1.2,2.2,324.6,0.01,15.7,20.7,"18:57:52",1
"23/05/21","19:10",0.0,25.7,56.4,999.8,339.1,1.5,3.2,340.6,0.01,16.4,20.7,"19:06:08",1
"23/05/21","19:20",0.0,24.7,59.4,1000.3,339.2,1.7,3.5,335.0,0.00,16.3,20.7,"19:13:28",1
"23/05/21","19:30",0.0,24.0,62.1,1000.0,326.8,1.1,2.0,325.8,0.00,16.3,20.8,"19:23:44",1
"23/05/21","19:40",0.0,23.5,63.5,1000.3,317.2,0.7,1.8,316.2,0.00,16.2,20.8,"19:38:56",1
"23/05/21","19:50",0.0,23.1,65.6,1000.5,332.3,1.1,1.8,342.6,0.00,16.4,20.7,"19:42:32",1
"23/05/21","20:00",0.0,22.4,67.3,1000.0,331.2,1.0,1.4,340.2,0.00,16.1,20.7,"19:52:08",1
"23/05/21","20:10",0.0,22.2,69.1,1000.3,329.5,1.1,2.0,345.1,0.00,16.3,20.7,"20:08:08",1
"23/05/21","20:20",0.0,21.7,70.7,1000.8,336.9,1.5,2.1,332.5,0.00,16.2,20.7,"20:19:52",1
"23/05/21","20:30",0.0,21.3,72.0,1001.0,310.3,1.5,2.4,327.4,0.00,16.1,20.7,"20:24:24",1
"23/05/21","20:40",0.0,21.1,73.1,1001.0,310.8,1.2,1.6,317.4,0.00,16.1,20.6,"20:30:56",1
"23/05/21","20:50",0.0,20.9,74.5,1001.2,334.0,1.7,2.8,320.6,0.00,16.2,20.6,"20:45:20",1
"23/05/21","21:00",0.0,20.7,76.3,1001.2,338.5,2.2,3.9,337.2,0.00,16.4,20.4,"20:59:36",1
"23/05/21","21:10",0.0,20.5,77.1,1001.5,324.9,2.2,3.9,314.8,0.00,16.4,20.5,"21:05:44",1
"23/05/21","21:20",0.0,20.4,77.7,1001.7,329.7,2.2,3.7,332.1,0.00,16.4,20.2,"21:12:40",1
"23/05/21","21:30",0.0,20.2,78.5,1001.7,333.1,2.2,3.3,315.8,0.00,16.4,20.4,"21:27:44",1
"23/05/21","21:40",0.0,20.0,79.3,1001.9,334.9,2.2,4.0,342.8,0.00,16.3,20.2,"21:38:16",1
"23/05/21","21:50",0.0,19.9,79.7,1001.9,330.2,2.2,3.4,330.1,0.00,16.3,20.0,"21:46:24",1
"23/05/21","22:00",0.0,19.7,79.8,1002.4,320.6,1.5,2.7,316.1,0.00,16.2,20.3,"21:52:16",1
"23/05/21","22:10",0.0,19.6,80.1,1002.2,309.6,1.6,2.6,319.0,0.00,16.1,20.1,"22:07:12",1
"23/05/21","22:20",0.0,19.4,80.5,1002.2,310.9,1.7,2.8,313.4,0.00,16.0,20.0,"22:16:16",1
"23/05/21","22:30",0.0,19.3,80.8,1002.2,323.6,2.0,2.7,334.2,0.00,16.0,20.2,"22:27:20",1
"23/05/21","22:40",0.0,19.2,81.1,1002.2,329.1,1.8,3.1,326.4,0.00,15.9,20.0,"22:30:24",1
"23/05/21","22:50",0.0,19.1,81.3,1002.4,330.3,1.8,3.2,342.6,0.00,15.9,20.1,"22:46:48",1
"23/05/21","23:00",0.0,19.0,81.6,1002.2,339.0,1.1,2.4,329.0,0.00,15.8,19.7,"22:50:08",1
"23/05/21","23:10",0.0,18.8,82.6,1002.6,316.7,1.0,1.8,309.4,0.00,15.8,19.7,"23:00:02",1
"23/05/21","23:20",0.0,18.4,83.8,1002.6,331.4,1.2,2.5,316.8,0.00,15.7,19.8,"23:10:24",1
"23/05/21","23:30",0.0,18.3,84.5,1002.6,284.2,1.1,2.5,312.5,0.00,15.7,19.8,"23:21:12",1
"23/05/21","23:40",0.0,18.1,85.1,1002.9,316.5,1.1,1.7,323.7,0.00,15.6,19.7,"23:37:44",1
"23/05/21","23:50",0.0,18.2,85.6,1002.9,318.5,1.3,1.9,328.7,0.00,15.8,19.7,"23:43:20",1
"23/05/21","24:00",0.0,18.1,86.0,1002.9,331.7,1.5,2.1,337.6,0.00,15.8,19.7,"23:58:00",1
